Weather History for New Bern, NC

Change the Weather History Date:

Thursday, July 18, 2013

  Actual Average Record
Temperature  
Mean Temperature 84 °F 81 °F  
Max Temperature 94 °F 90 °F 97 °F (1986)
Min Temperature 73 °F 72 °F 62 °F (1987)
Degree Days  
Heating Degree Days 0 0  
Month to date heating degree days 0 0  
Since 1 June heating degree days 0 1  
Since 1 July heating degree days 0 0  
Cooling Degree Days 19 16  
Month to date cooling degree days 300 281  
Year to date cooling degree days 965 889  
Since 1 June cooling degree days 709 646  
Growing Degree Days 33 (Base 50)    
Moisture  
Dew Point 73 °F    
Average Humidity 72    
Maximum Humidity 94    
Minimum Humidity 49    
Precipitation  
Precipitation 0.00 in 0.21 in 1.93 in (2001)
Month to date precipitation 2.79 3.40  
Year to date precipitation 22.35 27.38  
Snow  
Snow 0.00 in - - ()
Month to date snowfall 0.0  
Since 1 July snowfall 0.0  
Snow Depth 0.00 in    
Sea Level Pressure  
Sea Level Pressure 30.13 in    
Wind  
Wind Speed 4 mph (SSW)    
Max Wind Speed 15 mph    
Max Gust Speed 18 mph    
Visibility 9 miles    
Events      
T = Trace of Precipitation, MM = Missing Value Source: NWS Daily Summary

Daily Weather History Graph

Daily Weather History Graph

Search for Another Location

Airport:

Trip Planner

Search our weather history database for the weather conditions in past years. The results will help you decide how hot, cold, wet, or windy it might be!

Date:

Astronomy

Jul. 18, 2013 Rise Set
Actual Time 6:07 AM EDT 8:21 PM EDT
Civil Twilight 5:38 AM EDT 8:49 PM EDT
Nautical Twilight 5:03 AM EDT 9:24 PM EDT
Astronomical Twilight 4:25 AM EDT 10:03 PM EDT
Moon 4:16 PM EDT (7/18) 1:53 AM EDT (7/18)
Length of Visible Light 15h 11m
Length of Day
14h 13m
Waxing Gibbous, 77% of the Moon is Illuminated
Jul 18
Waxing Gibbous
Jul 22
Full
Jul 29
Last Quarter
Aug 6
New
Aug 14
First Quarter

Hourly Weather History & Observations

Time (EDT) Temp. Heat Index Dew Point Humidity Pressure Visibility Wind Dir Wind Speed Gust Speed Precip Events Conditions
12:54 AM 78.1 °F - 75.0 °F 90% 30.15 in 5.0 mi Calm Calm - N/A   Clear
1:54 AM 75.9 °F - 73.0 °F 91% 30.15 in 6.0 mi Calm Calm - N/A   Clear
2:54 AM 75.9 °F - 73.0 °F 91% 30.13 in 5.0 mi SW 3.5 mph - N/A   Clear
3:54 AM 75.9 °F - 73.0 °F 91% 30.13 in 6.0 mi Calm Calm - N/A   Clear
4:54 AM 73.9 °F - 71.1 °F 91% 30.14 in 5.0 mi Calm Calm - N/A   Clear
5:54 AM 73.9 °F - 71.1 °F 91% 30.14 in 6.0 mi Calm Calm - 0.01 in   Scattered Clouds
6:54 AM 75.0 °F - 72.0 °F 90% 30.15 in 10.0 mi Calm Calm - N/A   Clear
7:54 AM 79.0 °F - 75.0 °F 88% 30.15 in 6.0 mi Calm Calm - N/A   Clear
8:54 AM 84.0 °F 91.9 °F 75.0 °F 74% 30.15 in 10.0 mi Calm Calm - N/A   Clear
9:54 AM 88.0 °F 93.8 °F 71.1 °F 57% 30.15 in 10.0 mi Variable 3.5 mph - N/A   Clear
10:54 AM 89.1 °F 97.0 °F 73.0 °F 59% 30.15 in 10.0 mi NW 4.6 mph - N/A   Partly Cloudy
11:54 AM 91.9 °F 100.7 °F 73.0 °F 54% 30.15 in 10.0 mi Variable 3.5 mph - N/A   Clear
12:54 PM 91.0 °F 95.6 °F 69.1 °F 48% 30.14 in 10.0 mi Calm Calm - N/A   Scattered Clouds
1:54 PM 91.0 °F 97.6 °F 71.1 °F 52% 30.13 in 10.0 mi Calm Calm - N/A   Mostly Cloudy
2:54 PM 93.9 °F 100.8 °F 71.1 °F 47% 30.11 in 10.0 mi South 5.8 mph - N/A   Clear
3:54 PM 93.9 °F 102.1 °F 72.0 °F 49% 30.09 in 10.0 mi SSE 8.1 mph - N/A   Clear
4:54 PM 89.1 °F 96.0 °F 72.0 °F 57% 30.09 in 10.0 mi South 10.4 mph - N/A   Mostly Cloudy
5:54 PM 89.1 °F 96.0 °F 72.0 °F 57% 30.08 in 10.0 mi South 8.1 mph - N/A   Partly Cloudy
6:54 PM 88.0 °F 94.7 °F 72.0 °F 59% 30.08 in 10.0 mi South 8.1 mph - N/A   Clear
7:54 PM 84.0 °F 89.6 °F 72.0 °F 67% 30.09 in 10.0 mi SSW 8.1 mph - N/A   Clear
8:54 PM 81.0 °F 85.8 °F 73.0 °F 77% 30.11 in 10.0 mi SSW 8.1 mph - N/A   Clear
9:54 PM 80.1 °F 84.2 °F 73.0 °F 79% 30.12 in 10.0 mi SSW 4.6 mph - N/A   Clear
10:54 PM 79.0 °F - 73.9 °F 84% 30.13 in 10.0 mi SSW 4.6 mph - N/A   Clear
11:54 PM 79.0 °F - 73.9 °F 84% 30.14 in 10.0 mi SSW 5.8 mph - N/A   Partly Cloudy